Weather History for KGWR - May, 2013

Change the Weather History Date:

Friday, May 10, 2013

  Actual Average (KP67) Record (KP67)
Temperature  
Mean Temperature 56 °F -  
Max Temperature 73 °F 62 °F 78 °F (1997)
Min Temperature 39 °F 42 °F 46 °F (1997)
Degree Days  
Heating Degree Days 9    
Growing Degree Days 6 (Base 50)    
Moisture  
Dew Point 38 °F    
Average Humidity 59    
Maximum Humidity 100    
Minimum Humidity 29    
Precipitation  
Precipitation 0.00 in - - ()
Sea Level Pressure  
Sea Level Pressure 30.08 in    
Wind  
Wind Speed 10 mph (SW)    
Max Wind Speed 33 mph    
Max Gust Speed 41 mph    
Visibility 10 miles    
Events      
Averages and records for this station are not official NWS values.
T = Trace of Precipitation, MM = Missing Value Source: NWS Daily Summary

Daily Weather History Graph

Daily Weather History Graph

Search for Another Location

Airport or City:

Trip Planner

Search our weather history database for the weather conditions in past years. The results will help you decide how hot, cold, wet, or windy it might be!

Date:

Astronomy

May. 10, 2013 Rise Set
Actual Time 6:03 AM CDT 8:51 PM CDT
Civil Twilight 5:29 AM CDT 9:25 PM CDT
Nautical Twilight 4:45 AM CDT 10:09 PM CDT
Astronomical Twilight 3:53 AM CDT 11:02 PM CDT
Moon 6:28 AM CDT (5/10) 9:43 PM CDT (5/10)
Length of Visible Light 15h 56m
Length of Day
14h 47m
New Moon, 0% of the Moon is Illuminated
May 10
New Moon
May 17
First Quarter
May 24
Full
May 31
Last Quarter
Jun 8
New

Hourly Weather History & Observations

Time (CDT) Temp. Windchill Dew Point Humidity Pressure Visibility Wind Dir Wind Speed Gust Speed Precip Events Conditions
12:35 AM 46.4 °F - 44.6 °F 93% 30.18 in 10.0 mi Calm Calm - 0.00 in   Clear
12:55 AM 46.4 °F 45.2 °F 44.6 °F 93% 30.18 in 10.0 mi ESE 3.5 mph - 0.00 in   Clear
1:15 AM 46.4 °F 45.2 °F 46.4 °F 100% 30.18 in 10.0 mi ESE 3.5 mph - 0.00 in   Clear
1:35 AM 46.4 °F 44.3 °F 46.4 °F 100% 30.17 in 10.0 mi ESE 4.6 mph - 0.00 in   Clear
1:55 AM 46.4 °F 43.5 °F 46.4 °F 100% 30.17 in 10.0 mi SSE 5.8 mph - 0.00 in   Clear
2:15 AM 44.6 °F 40.7 °F 44.6 °F 100% 30.16 in 10.0 mi SSE 6.9 mph - 0.00 in   Clear
2:35 AM 44.6 °F 42.2 °F 44.6 °F 100% 30.16 in 10.0 mi SSE 4.6 mph - 0.00 in   Clear
3:15 AM 44.6 °F 42.2 °F 44.6 °F 100% 30.15 in 10.0 mi SW 4.6 mph - 0.00 in   Clear
3:55 AM 41.0 °F - 41.0 °F 100% 30.15 in 8.0 mi Calm Calm - 0.00 in   Clear
4:15 AM 42.8 °F - 42.8 °F 100% 30.15 in 7.0 mi Calm Calm - 0.00 in   Clear
4:35 AM 41.0 °F 38.0 °F 41.0 °F 100% 30.16 in 3.0 mi WSW 4.6 mph - 0.00 in   Clear
4:55 AM 42.8 °F 38.6 °F 42.8 °F 100% 30.15 in 9.0 mi WSW 6.9 mph - 0.00 in   Clear
5:15 AM 39.2 °F 34.2 °F 39.2 °F 100% 30.15 in 10.0 mi WSW 6.9 mph - 0.00 in   Clear
5:35 AM 39.2 °F 35.9 °F 39.2 °F 100% 30.15 in 10.0 mi SW 4.6 mph - 0.00 in   Clear
5:55 AM 39.2 °F 35.0 °F 39.2 °F 100% 30.15 in 10.0 mi SW 5.8 mph - 0.00 in   Clear
6:15 AM 39.2 °F 34.2 °F 39.2 °F 100% 30.14 in 5.0 mi SW 6.9 mph - 0.00 in   Clear
6:35 AM 39.2 °F 34.2 °F 39.2 °F 100% 30.14 in 10.0 mi SSW 6.9 mph - 0.00 in   Clear
6:55 AM 39.2 °F 35.0 °F 39.2 °F 100% 30.14 in 10.0 mi SW 5.8 mph - 0.00 in   Clear
7:15 AM 42.8 °F 41.1 °F 42.8 °F 100% 30.15 in 10.0 mi SSW 3.5 mph - 0.00 in   Clear
7:35 AM 44.6 °F 42.2 °F 44.6 °F 100% 30.15 in 10.0 mi SSW 4.6 mph - 0.00 in   Clear
7:55 AM 46.4 °F 42.9 °F 44.6 °F 93% 30.15 in 10.0 mi South 6.9 mph - 0.00 in   Clear
8:15 AM 48.2 °F - 42.8 °F 82% 30.14 in 10.0 mi SSE 9.2 mph - 0.00 in   Clear
8:35 AM 50.0 °F - 37.4 °F 62% 30.14 in 10.0 mi SSE 10.4 mph - 0.00 in   Clear
8:55 AM 51.8 °F - 35.6 °F 54% 30.14 in 10.0 mi SSE 11.5 mph - 0.00 in   Clear
9:15 AM 51.8 °F - 35.6 °F 54% 30.14 in 10.0 mi South 8.1 mph - 0.00 in   Clear
9:35 AM 53.6 °F - 35.6 °F 51% 30.13 in 10.0 mi South 11.5 mph - 0.00 in   Clear
9:55 AM 53.6 °F - 35.6 °F 51% 30.12 in 10.0 mi South 11.5 mph - 0.00 in   Clear
10:15 AM 55.4 °F - 35.6 °F 47% 30.11 in 10.0 mi South 12.7 mph - 0.00 in   Clear
10:35 AM 57.2 °F - 35.6 °F 44% 30.11 in 10.0 mi South 16.1 mph - 0.00 in   Clear
10:55 AM 57.2 °F - 35.6 °F 44% 30.10 in 10.0 mi SSW 12.7 mph 18.4 mph 0.00 in   Clear
11:15 AM 60.8 °F - 35.6 °F 39% 30.10 in 10.0 mi SSW 13.8 mph - 0.00 in   Clear
11:35 AM 60.8 °F - 35.6 °F 39% 30.09 in 10.0 mi SSW 17.3 mph - 0.00 in   Clear
11:55 AM 62.6 °F - 35.6 °F 37% 30.09 in 10.0 mi SW 13.8 mph 19.6 mph 0.00 in   Clear
12:15 PM 62.6 °F - 35.6 °F 37% 30.08 in 10.0 mi SSW 16.1 mph 20.7 mph 0.00 in   Clear
12:35 PM 64.4 °F - 35.6 °F 34% 30.06 in 10.0 mi SSW 18.4 mph 21.9 mph 0.00 in   Clear
12:55 PM 66.2 °F - 35.6 °F 32% 30.05 in 10.0 mi SW 13.8 mph 21.9 mph 0.00 in   Clear
1:15 PM 66.2 °F - 35.6 °F 32% 30.03 in 10.0 mi SW 16.1 mph 23.0 mph 0.00 in   Clear
1:35 PM 66.2 °F - 37.4 °F 35% 30.02 in 10.0 mi SSW 17.3 mph 23.0 mph 0.00 in   Clear
1:55 PM 68.0 °F - 37.4 °F 33% 30.01 in 10.0 mi SW 15.0 mph 23.0 mph 0.00 in   Clear
2:15 PM 69.8 °F - 39.2 °F 33% 29.99 in 10.0 mi SW 13.8 mph 27.6 mph 0.00 in   Clear
2:35 PM 69.8 °F - 39.2 °F 33% 29.98 in 10.0 mi SSW 18.4 mph 25.3 mph 0.00 in   Clear
2:55 PM 69.8 °F - 39.2 °F 33% 29.97 in 10.0 mi SW 17.3 mph 23.0 mph 0.00 in   Clear
3:15 PM 71.6 °F - 41.0 °F 33% 29.95 in 10.0 mi SW 15.0 mph 23.0 mph 0.00 in   Clear
3:35 PM 71.6 °F - 41.0 °F 33% 29.94 in 10.0 mi SW 20.7 mph 25.3 mph 0.00 in   Clear
3:55 PM 73.4 °F - 39.2 °F 29% 29.92 in 10.0 mi WSW 17.3 mph 26.5 mph 0.00 in   Partly Cloudy
4:15 PM 71.6 °F - 39.2 °F 31% 29.91 in 10.0 mi WSW 18.4 mph 28.8 mph 0.00 in   Mostly Cloudy
4:35 PM 73.4 °F - 39.2 °F 29% 29.89 in 10.0 mi West 21.9 mph 28.8 mph 0.00 in   Mostly Cloudy
4:55 PM 73.4 °F - 39.2 °F 29% 29.89 in 10.0 mi West 18.4 mph 24.2 mph 0.00 in   Mostly Cloudy
5:15 PM 71.6 °F - 41.0 °F 33% 29.89 in 10.0 mi NW 24.2 mph 29.9 mph 0.00 in   Mostly Cloudy
5:35 PM 73.4 °F - 41.0 °F 31% 29.90 in 10.0 mi NNW 28.8 mph 33.4 mph 0.00 in   Scattered Clouds
5:55 PM 71.6 °F - 39.2 °F 31% 29.92 in 9.0 mi North 29.9 mph 40.3 mph 0.00 in   Partly Cloudy
6:15 PM 68.0 °F - 37.4 °F 33% 29.94 in 10.0 mi NNW 31.1 mph 41.4 mph 0.00 in   Partly Cloudy
6:35 PM 66.2 °F - 37.4 °F 35% 29.96 in 10.0 mi North 33.4 mph 41.4 mph 0.00 in   Clear
6:55 PM 64.4 °F - 35.6 °F 34% 29.98 in 10.0 mi North 28.8 mph 35.7 mph 0.00 in   Clear
7:15 PM 64.4 °F - 37.4 °F 37% 29.99 in 10.0 mi North 31.1 mph 39.1 mph 0.00 in   Clear
7:35 PM 62.6 °F - 35.6 °F 37% 30.00 in 10.0 mi North 29.9 mph 35.7 mph 0.00 in   Clear
7:55 PM 60.8 °F - 35.6 °F 39% 30.02 in 10.0 mi North 28.8 mph 36.8 mph 0.00 in   Clear
8:15 PM 57.2 °F - 33.8 °F 41% 30.04 in 10.0 mi North 23.0 mph 32.2 mph 0.00 in   Clear
8:35 PM 57.2 °F - 33.8 °F 41% 30.06 in 10.0 mi North 21.9 mph 31.1 mph 0.00 in   Clear
8:55 PM 55.4 °F - 32.0 °F 41% 30.06 in 10.0 mi North 19.6 mph 25.3 mph 0.00 in   Clear
9:15 PM 53.6 °F - 32.0 °F 44% 30.07 in 10.0 mi North 17.3 mph 24.2 mph 0.00 in   Clear
9:35 PM 51.8 °F - 32.0 °F 47% 30.09 in 10.0 mi North 12.7 mph - 0.00 in   Clear
9:55 PM 51.8 °F - 32.0 °F 47% 30.10 in 10.0 mi North 12.7 mph - 0.00 in   Clear
10:15 PM 50.0 °F - 32.0 °F 50% 30.12 in 10.0 mi NNE 16.1 mph - 0.00 in   Clear
10:35 PM 48.2 °F - 32.0 °F 54% 30.13 in 10.0 mi NNE 15.0 mph - 0.00 in   Clear
10:55 PM 46.4 °F 39.8 °F 30.2 °F 53% 30.14 in 10.0 mi NNE 16.1 mph 19.6 mph 0.00 in   Clear
11:15 PM 44.6 °F 38.4 °F 28.4 °F 53% 30.15 in 10.0 mi NNE 12.7 mph - 0.00 in   Clear
11:35 PM 44.6 °F 39.2 °F 28.4 °F 53% 30.16 in 10.0 mi North 10.4 mph - 0.00 in   Clear
11:55 PM 42.8 °F 37.0 °F 28.4 °F 57% 30.16 in 10.0 mi North 10.4 mph - 0.00 in   Clear